Logs | Chris Steele, Alvord, TX, USA - EM13di
Paging Controls
Log ID Date UTC KHz ID Location S/P ITU Region GSQ LSB USB Sec. Fmt. Power KM Miles Deg
74039 2004-12-26 1928 371 HNO Henderson TX USA na EM22ne 295 183 115
74038 2004-12-26 1920 341 BMQ Burnet TX USA na EM00vr 25 296 184 189
74037 2004-12-26 1911 281 CX 'Alibi' Conroe TX USA na EM20gk 25 388 241 146
67132 2004-12-26 0526 368 AN 'Alamo' San Antonio TX USA na EL09ro 400 424 264 190
67130 2004-12-26 0524 362 BNH Brenham TX USA na EM10tf 25 370 230 159
67131 2004-12-26 0524 365 FT 'Mufin' Fort Worth TX USA na EM12hv 25 60 37 148
67070 2004-12-26 0519 360 KIN Kingston JMC ca FK17nx 1000 2688 1670 124
67129 2004-12-26 0515 362 HPC Hope AR USA na EM33er 381 237 82
67128 2004-12-26 0512 359 GUV 'Gator' Fort Polk LA USA na EM31ja 497 309 120
67127 2004-12-26 0511 359 DUA Durant OK USA na EM13tw 25 139 87 61
67126 2004-12-26 0509 358 AC 'Coffi' Waco TX USA na EM11jq 191 119 165
67125 2004-12-26 0508 356 HZ 'Hazer' New Roads LA USA na EM40gp 662 411 115
67124 2004-12-26 0506 356 SJ 'Woole' San Angelo TX USA na DM91rg 353 219 229
67123 2004-12-26 0505 356 GMZ 'Grindstone Mountain' Bowie TX USA na EM13co 29 18 344
67122 2004-12-26 0504 353 LI 'Lasky' Little Rock AR USA na EM34uq 400 521 323 71
67121 2004-12-26 0503 353 BKS 'Brooks Co' Falfurrias TX USA na EL07we 25 687 427 183
67120 2004-12-26 0502 353 XQH Cedar Hill (Tv Tower) TX USA na EM12mo 109 68 139
67119 2004-12-26 0500 350 IUI 'Hicks' Blytheville AR USA na EM55bw 25 772 479 65
67118 2004-12-26 0459 350 RG 'Gally' Oklahoma City OK USA na EM15eh 400 218 135 1
67117 2004-12-26 0457 347 HLR 'Hood' Fort Hood (Killeen) TX USA na EM11dd 246 153 180
67116 2004-12-26 0456 347 MKV Marksville LA USA na EM31xc 25 589 366 113
67115 2004-12-26 0455 344 SKB 'Scotland' Wichita Falls TX USA na EM03ss 25 84 52 303
67114 2004-12-26 0454 344 ML 'Wampa' Mc Alester OK USA na EM24ct 240 149 46
67113 2004-12-26 0452 341 DNI Denison TX USA na EM13pt 25 106 66 60
67112 2004-12-26 0448 338 MRK 'Molly Ridge' Rayville LA USA na EM42cj 563 350 99
67111 2004-12-26 0446 335 RQO El Reno OK USA na EM05xl 25 238 148 352
67069 2004-12-26 0445 335 YLD Chapleau ON CAN na EN87hs 100 2002 1244 32
67110 2004-12-26 0443 330 GLE Gainesville TX USA na EM13jr 62 39 47
67109 2004-12-26 0442 330 CZM Cozumel (Quintana Roo) MEX ca EL60mm 1778 1105 140
67108 2004-12-26 0441 329 HMA Hondo TX USA na EL09ji 25 467 290 198
67107 2004-12-26 0440 326 MA 'Farly' Midland TX USA na DM81ux 400 455 283 251
67106 2004-12-26 0439 323 GR 'Starn' Fort Hood (Kileen) TX USA na EM11be 241 150 183
67105 2004-12-26 0436 314 GGU Prague OK USA na EM15pm 25 258 160 20
67104 2004-12-26 0433 287 RBD 'Redbird' Dallas TX USA na EM12nq 50 107 67 133
67103 2004-12-26 0432 284 AUV 'Arbuckle' Ardmore OK USA na EM14kd 25 103 64 31
67101 2004-12-26 0427 281 UVA Uvalde TX USA na EL09de 25 501 311 202
67102 2004-12-26 0427 281 DEQ De Queen AR USA na EM24tb 25 318 198 74
67100 2004-12-26 0425 278 CEP 'Capitan' Ruidoso NM USA na DM73hl 25 712 442 273
67098 2004-12-26 0422 275 ADF Arkadelphia AR USA na EM34kb 25 431 268 78
67099 2004-12-26 0422 275 LV 'Conis' Dallas TX USA na EM12os 25 107 67 126
67097 2004-12-26 0421 272 OJA Weatherford OK USA na EM05pm 258 160 339
67096 2004-12-26 0419 272 MMY Many LA USA na EM31fn 439 273 115
67064 2004-12-26 0418 269 OSX Kosciusko MS USA na EM53fc 25 760 472 89
67095 2004-12-26 0416 269 AHX Athens TX USA na EM22cd 25 224 139 126
67094 2004-12-26 0414 266 MWL Mineral Wells TX USA na EM02xs 72 45 205
67093 2004-12-26 0413 263 JSO 'Cherokee Co' Jacksonville TX USA na EM21ju 287 179 124
67092 2004-12-26 0411 260 OUN Norman OK USA na EM15gf 25 210 130 6
67091 2004-12-26 0410 260 AVZ 'Travis' Terrell TX USA na EM12vs 25 154 96 114
67090 2004-12-26 0405 257 DT 'Pinck' Denton TX USA na EM13jg 25 47 29 101
67089 2004-12-26 0404 255 SW 'GABEH' Stillwater OK USA na EM16kf 50 324 201 9
67088 2004-12-26 0403 251 MNZ Hamilton TX USA na EM01wo 25 198 123 191
67087 2004-12-26 0359 251 AM 'Pande' Amarillo TX USA na DM95cd 400 425 264 299
67086 2004-12-26 0358 248 PQF Mesquite TX USA na EM12rt 25 124 77 118
67063 2004-12-26 0357 248 FRT 'Fairmont' Spartanburg SC USA na EM94av 400 1458 906 78
67085 2004-12-26 0354 247 ILT Isleta NM USA na DM64qx 400 840 522 284
67084 2004-12-26 0353 245 ARM Wharton TX USA na EL19wg 25 478 297 161
67083 2004-12-26 0352 245 BKD Breckenridge TX USA na EM02nr 25 129 80 237
67082 2004-12-26 0351 242 CUH Cushing OK USA na EM15ov 25 295 183 16
67080 2004-12-26 0349 239 LNC Lancaster TX USA na EM12pn 25 128 80 133
67081 2004-12-26 0349 239 UBC Ballinger TX USA na EM01aq 25 281 174 229
67079 2004-12-26 0348 233 PK 'Issue' Dallas (DFW) TX USA na EM12lt 87 54 133
67078 2004-12-26 0343 230 SH 'Crakk' Shreveport LA USA na EM32bm 400 369 230 103
67077 2004-12-26 0342 227 TNZ 'Lawrence Co.' Walnut Ridge AR USA na EM46me 25 692 430 61
67076 2004-12-26 0337 219 FL 'Jiffy' Flower Mound (Dallas Ft. Worth Intl Apt) TX USA na EM12lx 75 46 123
67075 2004-12-26 0333 215 BFK Buffalo OK USA na EM06eu 25 426 265 336
67074 2004-12-26 0330 212 HMQ Homer LA USA na EM32ls 440 273 97
67073 2004-12-26 0328 208 BDQ 'Bridge' Morrilton AR USA na EM35pd 25 501 311 65
67072 2004-12-26 0326 206 GLS Galveston TX USA na EL29oi 2000 524 325 147
67071 2004-12-26 0325 201 GV 'Major' Greenville TX USA na EM13xd 25 157 97 98
67068 2004-12-26 0324 415 CBC West End (Cayman Brac) CYM ca FK09bq 600 2329 1447 126
67067 2004-12-26 0322 391 DDP San Juan / Dorado / Luiz Munoz Marin Intl PR PTR ca FK68tl 2000 3523 2189 110
67066 2004-12-26 0239 366 YMW Maniwaki QC CAN na FN26ae 500 2330 1448 45
67065 2004-12-26 0235 351 YKQ Waskaganish QC CAN na FO01pl 500 2532 1573 31
67062 2004-12-25 0500 287 MKP Mckeesport PA USA na FN00ci 1769 1099 58
67061 2004-12-24 0324 254 ILJ 'Willard' Springfield MO USA na EM37gh 585 363 40
67060 2004-12-24 0317 234 RYD Green Cove Springs FL USA na EL99ex 1566 973 99
67059 2004-12-24 0303 201 CZE Clarksville AR USA na EM33gl 25 395 245 86
67058 2004-12-21 0148 320 HTN 'Horton' Miles City MT USA na DN76aj 100 1610 1000 336
67057 2004-12-21 0005 216 CLB Wilmington / Carolina Beach NC USA na FM14ac 1825 1134 81
67056 2004-12-21 0004 198 DIW Dixon NC USA na FM14gn 2000 1869 1161 80
67055 2004-12-21 0003 332 QT Thunder Bay ON CAN na EN58gi 1000 1804 1121 19
66341 2004-12-20 0257 334 UU 'Seyer' Corinth MS USA na EM55qa 25 855 531 74
66340 2004-12-20 0226 368 EU 'Murey' Murray KY USA na EM56ur 25 935 581 63
66176 2004-12-19 0634 284 QD The Pas MB CAN na DO93lx 500 2308 1434 354
66175 2004-12-19 0631 283 IML Imperial NE USA na DN90em 25 869 540 337
66174 2004-12-19 0628 281 DMO Sedalia MO USA na EM38jq 25 718 446 33
66173 2004-12-19 0622 274 RG Red Wing MN USA na EN34qo 25 1325 823 17
66172 2004-12-19 0555 218 RL Red Lake ON CAN na EO31cb 1000 1994 1239 8
66171 2004-12-19 0511 212 DBX 'Morrison' Washington KS USA na EM19ls 25 716 445 4
66169 2004-12-19 0510 233 HR 'Bakky' Harrison AR USA na EM36kd 521 324 52
66170 2004-12-19 0510 242 BKZ Brinkley AR USA na EM44jv 25 622 387 72
66168 2004-12-19 0404 423 AU 'Opole' Auburn AL USA na EM72gm 1146 712 91
66167 2004-12-19 0347 404 BAV 'Hardeman' Bolivar TN USA na EM55lf 823 511 72
66166 2004-12-19 0329 391 RKP Rockport TX USA na EL18lc 25 587 365 173
66165 2004-12-19 0327 390 OWC 'Coffee County' Douglas GA USA na EM81mj 25 1401 870 94
66164 2004-12-19 0303 368 BEQ Bessemer AL USA na EM63mh 25 998 620 87
66163 2004-12-19 0249 356 LLU 'Spring River' Lamar MO USA na EM27ul 553 344 33
66162 2004-12-19 0221 350 LF 'Flufy' Lufkin TX USA na EM21of 362 225 129
66161 2004-12-19 0212 343 DNT 'Nally Dunston' Dyersburg TN USA na EM55hx 816 507 66
66160 2004-12-19 0200 326 FO 'Riply' Topeka KS USA na EM28fv 646 401 16
66159 2004-12-19 0118 260 CL 'Rowdy' College Station TX USA na EM10tl 344 213 158
66158 2004-12-18 0155 395 JM 'Sabon' Jamestown ND USA na EN06ru 1503 934 357
66157 2004-12-18 0154 395 GD Guadalajara (Jalisco) MEX ca DL80jl 1000 1531 951 202
66156 2004-12-18 0142 362 BL Belleville IL USA na EM58cl 912 567 49
66155 2004-12-18 0137 349 GW 'Teock' Greenwood MS USA na EM43wo 25 704 437 85
66154 2004-12-18 0135 347 AFK Nebraska City NE USA na EN20bo 822 511 10
66153 2004-12-18 0120 314 CVY 'Cavalry' Fort Riley KS USA na EM19oa 25 635 395 7
65900 2004-12-17 0257 233 QN Nakina ON CAN na EO60qe 400 2080 1292 22
65899 2004-12-17 0245 244 TH Thompson MB CAN na EO15bt 1000 2497 1552 359
65898 2004-12-17 0227 394 RO 'Roeby' Birmingham AL USA na EM63po 25 1020 634 85
65897 2004-12-17 0218 379 UNE 'Union County' Creston IA USA na EN20tw 893 555 18
65896 2004-12-16 0340 350 LE 'Leevy' Raleigh NC USA na FM05pw 400 1759 1093 75
65895 2004-12-16 0242 385 GYB 'Lee County' Giddings TX USA na EM10me 25 359 223 168
65894 2004-12-16 0236 379 BRA 'Broad River' Asheville NC USA na EM85sg 100 1415 879 77
65893 2004-12-16 0220 369 CXU Camilla GA USA na EM71vf 25 1290 801 96
65892 2004-12-15 0313 347 VER 'Viertel' Boonville MO USA na EM39pw 857 532 29
65705 2004-12-12 0221 413 TAM Tampico (Tamaulipas) MEX ca EL12bg 1000 1232 766 180
65704 2004-12-12 0158 258 ZSJ Sandy Lake ON CAN na EO33hb 500 2218 1378 7
65703 2004-12-11 0539 410 GG 'Veels' Longview TX USA na EM22ok 291 181 109
65702 2004-12-11 0536 419 GB 'Babsy' Great Bend KS USA na EM08ng 25 557 346 349
64716 2004-12-08 0311 383 CNP Chappell NE USA na DN81sb 25 954 593 335
64715 2004-12-08 0257 366 EZM Eastman GA USA na EM82kd 25 1369 851 91
64714 2004-12-08 0255 365 PBC 'Maury Co' Columbia / Mount Pleasant TN USA na EM65ko 25 1001 622 72
64713 2004-12-08 0247 358 TNY 'Kelso' Fayetteville TN USA na EM65rd 25 1045 649 75
64712 2004-12-08 0244 344 TV 'Savry' Vicksburg / Tallulah LA USA na EM42lf 25 635 395 99
64711 2004-12-08 0243 344 ZIY George Town / Grand Cayman Island CYM ca EK99hg 2253 1400 129
64710 2004-12-08 0241 341 CKM Clarksdale MS USA na EM44rh 25 670 416 78
64709 2004-12-08 0211 286 EYQ 'Weiser' Houston TX USA na EL29ew 25 428 266 152
64708 2004-12-08 0043 227 TNZ 'Lawrence Co.' Walnut Ridge AR USA na EM46me 25 692 430 61
64372 2004-12-06 0530 400 QQ Comox BC CAN na CN79ms 2883 1791 317
64371 2004-12-06 0518 351 YKQ Waskaganish QC CAN na FO01pl 500 2532 1573 31
64370 2004-12-06 0514 360 PN Port-Menier / Ile Anticosti QC CAN na FN79tu 500 3282 2039 45
64369 2004-12-06 0508 368 ZP Sandspit BC CAN na CO43ce 3477 2160 319
64368 2004-12-06 0505 368 SX Skookum (Cranbrook) BC CAN na DN29cw 500 2366 1470 326
64367 2004-12-06 0452 385 WL Williams Lake BC CAN na CO92ad 500 2852 1772 324
64366 2004-12-06 0451 385 NA Natashquan QC CAN na FO90bf 500 3464 2152 46
64365 2004-12-06 0449 392 ML Charlevoix QC CAN na FN47uo 500 2785 1730 47
64364 2004-12-06 0445 414 BC Baie Comeau QC CAN na FN59uc 500 2989 1857 45
64363 2004-12-06 0428 372 UQN 'Onyun' Vidalia GA USA na EM82uf 25 1445 898 90
64362 2004-12-06 0426 374 FLZ Fort Rucker 'Florala Airport' AL USA na EM61ub 1103 685 100
64361 2004-12-06 0252 402 C Camaguey (Camaguey) CUB ca FL11bj 2360 1466 119
64360 2004-12-06 0247 385 EMR 'Emory' Augusta GA USA na EM93al 400 1460 907 85
64359 2004-12-06 0211 340 YY Mont Joli QC CAN na FN58un 500 2964 1842 46
64358 2004-12-06 0150 276 YEL Elliot Lake ON CAN na EN86qi 250 1929 1199 37
64357 2004-12-06 0142 269 AR 'Acadi' New Iberia LA USA na EL49bw 25 670 416 122
64356 2004-12-06 0139 266 PYX Perryton TX USA na DM96pj 25 435 270 321
64355 2004-12-06 0034 234 TX 'Tecco' Texarkana AR USA na EM33am 25 348 216 85
63807 2004-12-05 0520 263 ECY Eunice LA USA na EM30sn 25 584 363 120
63806 2004-12-05 0515 260 MTH Marathon FL USA na EL94kr 100 1872 1163 116
63805 2004-12-05 0513 257 BP 'Kazoo' Beaumont / Port Arthur TX USA na EL29wx 506 314 136
63804 2004-12-05 0504 211 ORG Orange TX USA na EM30cb 521 324 133
63802 2004-12-05 0501 209 RN 'Warri' Mc Minnville TN USA na EM75cs 1123 698 72
63803 2004-12-05 0501 211 AN 'Bogga' Anniston AL USA na EM73am 25 1090 677 85
63801 2004-12-05 0438 520 IQS Sallisaw OK USA na EM25oj 25 351 218 48
63800 2004-12-04 1637 201 MNE Minden LA USA na EM32ip 419 261 99
63799 2004-12-04 0240 416 BKL 'Burke Lakefront' Cleveland OH USA na EN91em 1681 1045 52
63798 2004-12-04 0235 273 FK 'Airbe' Fort Campbell (Hopkinsville) KY USA na EM66hr 25 1012 629 65
63796 2004-12-04 0225 347 MKV Marksville LA USA na EM31xc 25 589 366 113
63797 2004-12-04 0220 351 AE 'Dudle' Albuquerque NM USA na DM65pf 852 530 286
63795 2004-12-04 0211 227 TN 'Monry' Trailtown (Miami) FL USA na EL95lu 1811 1125 113
63794 2004-12-03 0603 418 EL 'Lados' El Dorado AR USA na EM33pg 465 289 89
63793 2004-12-03 0553 371 FNA 'Florenville' Slidell LA USA na EM50cj 816 507 111
63792 2004-12-03 0521 326 PKZ 'Pickens' Pensacola FL USA na EM60jk 400 1042 648 105
63791 2004-12-03 0516 260 BVQ 'Beaver Creek' Glasgow KY USA na EM67xa 25 1135 705 65
63790 2004-12-03 0513 255 FYE Somerville TN USA na EM55he 792 492 72
63789 2004-12-03 0511 247 VED Leesville LA USA na EM31hc 478 297 120
63788 2004-12-03 0509 245 PTN Patterson LA USA na EL49hr 723 449 122
63450 2004-12-02 0523 359 GUV 'Gator' Fort Polk LA USA na EM31ja 497 309 120
63449 2004-12-02 0450 350 CP 'Acore' Cahokia / St Louis IL USA na EM48xm 25 897 558 48
63448 2004-12-02 0439 257 SQT 'Satellite' Melbourne FL USA na EL98pc 1724 1071 105
63447 2004-12-02 0429 420 TU 'Veron' Tupelo MS USA na EM54oe 25 829 515 81
63446 2004-12-02 0411 394 MKL 'Mersy' Jackson TN USA na EM55mm 25 837 520 70
63445 2004-12-02 0407 391 BHN 'Buckhorn' Fort Leonard Wood MO USA na EM37wq 698 434 44
63444 2004-12-02 0405 386 BTN Britton SD USA na EN15dt 1385 861
63443 2004-12-02 0357 379 OW 'Tonna' Owatonna MN USA na EN34kb 25 1255 780 17
63442 2004-12-02 0338 338 VTI 'Garrison' Vinton IA USA na EN32xf 25 1105 686 25
63441 2004-12-02 0326 337 FF 'Hamre' Fergus Falls MN USA na EN16xf 25 1439 894 5
63440 2004-12-02 0308 269 BEX Bloomfield IA USA na EN30sr 25 943 586 28
63439 2004-12-02 0304 267 HET Henryetta OK USA na EM15xj 25 274 170 33
63438 2004-12-02 0246 239 PWY Hebbronville TX USA na EL07qk 664 412 187
63437 2004-12-02 0242 230 CPP 'Cole Spring' Cullman AL USA na EM64oi 25 1014 630 80
63436 2004-12-02 0240 226 VCT 'Fostr' Victoria TX USA na EL18lv 50 500 311 172
63435 2004-12-02 0212 416 LB 'Panbe' North Platte NE USA na DN91rb 50 893 555 344
63434 2004-12-02 0210 429 IKY Springfield KY USA na EM77jp 25 1227 762 63
63433 2004-12-02 0208 224 GVA 'Geneva' Henderson KY USA na EM67ct 25 1024 636 58
63295 2004-12-01 0522 389 CSB 'Harry Strunk' Cambridge NE USA na DN90wh 25 803 499 345
63294 2004-12-01 0520 395 CA 'Harvs' Newton KS USA na EM18id 25 534 332 3
63293 2004-12-01 0514 419 RYS 'Grosse Ile' Detroit / Grosse Ile MI USA na EN82kc 25 1606 998 48
63292 2004-12-01 0454 260 AP 'Casse' Denver CO USA na DM79nk 100 932 579 318
63291 2004-12-01 0430 209 EAD Nevada MO USA na EM27uu 588 365 30
63290 2004-12-01 0402 341 OIN Oberlin KS USA na DM99rt 25 761 473 341
63289 2004-12-01 0358 284 BEA Beeville TX USA na EL18ci 556 345 180
63288 2004-12-01 0355 402 CV Carlz Carlsbad NM USA na DM72tg 634 394 260
63287 2004-12-01 0350 341 SG 'Doman' Santa Fe NM USA na DM65wn 809 503 290
63286 2004-12-01 0346 339 MKR 'Milk River' Glasgow MT USA na DN68qe 1809 1124 338
63285 2004-11-30 0043 412 BWR 'Brewster Co' Alpine TX USA na DM80ek 25 646 401 241
63284 2004-11-30 0027 356 PK Unknown XUN xx
63281 2004-11-29 0000 338 LSA Lamesa TX USA na DM92bs 25 394 245 261
63282 2004-11-29 0000 341 JHN 'Bear Creek' Johnson KS USA na DM97dp 599 372 323
63283 2004-11-29 0000 278 IL 'Iresh' Killeen TX USA na EM11da 25 259 161 180
62088 2004-11-28 0412 326 YQK Kenora ON CAN na EN29st 200 1849 1149 7
62087 2004-11-28 0237 323 HJH Hebron NE USA na EN10ed 25 755 469
62086 2004-11-28 0234 332 RPF Carthage TX USA na EM22ue 25 345 214 111
62085 2004-11-28 0226 332 QT Thunder Bay ON CAN na EN58gi 1000 1804 1121 19
62084 2004-11-28 0223 326 JY 'Nixin' Houston TX USA na EL29jx 25 444 276 147
62083 2004-11-28 0204 332 CZX Crosbyton TX USA na DM93jo 326 202 275
62082 2004-11-28 0150 332 GUO Georgetown TX USA na EM10dq 297 184 180
62080 2004-11-28 0148 332 FIS 'Fish Hook' Key West FL USA na EL94cn 400 1828 1136 118
62081 2004-11-28 0148 330 CZM Cozumel (Quintana Roo) MEX ca EL60mm 1778 1105 140
62079 2004-11-28 0146 329 TAD Trinidad CO USA na DM77th 150 748 465 307
62077 2004-11-28 0145 326 MA 'Farly' Midland TX USA na DM81ux 400 455 283 251
62078 2004-11-28 0145 329 HMA Hondo TX USA na EL09ji 25 467 290 198
62076 2004-11-28 0143 323 GR 'Starn' Fort Hood (Kileen) TX USA na EM11be 241 150 183
62074 2004-11-28 0142 320 TY Tyler / Indoo TX USA na EM22gj 100 236 146 116
62075 2004-11-28 0142 320 CLK Clinton OK USA na EM05mm 20 267 166 334
62073 2004-11-27 1935 332 CZX Crosbyton TX USA na DM93jo 326 202 275
62072 2004-11-27 1934 332 GUO Georgetown TX USA na EM10dq 297 184 180
62071 2004-11-27 1930 329 OWU 'West Woodward' Woodward OK USA na EM06fk 381 237 334
62068 2004-11-27 1927 329 HMA Hondo TX USA na EL09ji 25 467 290 198
62069 2004-11-27 1927 329 TAD Trinidad CO USA na DM77th 150 748 465 307
62070 2004-11-27 1927 329 LXY Mexia TX USA na EM11rp 219 136 149
62066 2004-11-27 1926 323 HJH Hebron NE USA na EN10ed 25 755 469
62067 2004-11-27 1926 326 MA 'Farly' Midland TX USA na DM81ux 400 455 283 251
62065 2004-11-27 1924 323 GR 'Starn' Fort Hood (Kileen) TX USA na EM11be 241 150 183
62063 2004-11-27 1923 320 TY Tyler / Indoo TX USA na EM22gj 100 236 146 116
62064 2004-11-27 1923 320 CLK Clinton OK USA na EM05mm 20 267 166 334
62091 2004-11-27 1815 388 OK 'Preso' Preston (Okmulgee) OK USA na EM25as 25 313 194 30
62090 2004-11-27 1814 393 BZ 'Fossi' Clinton OK USA na EM05jk 25 269 167 329
62089 2004-11-27 1812 341 EI 'Garfy' Enid OK USA na EM16cg 324 202 358
61956 2004-11-27 0344 330 CZM Cozumel (Quintana Roo) MEX ca EL60mm 1778 1105 140
61955 2004-11-27 0342 329 CH 'Ashly' Charleston SC USA na EM92wx 400 1635 1016 86
61954 2004-11-27 0324 332 RPF Carthage TX USA na EM22ue 25 345 214 111
61953 2004-11-27 0321 332 CZX Crosbyton TX USA na DM93jo 326 202 275
61952 2004-11-27 0316 326 RRX 'Darr' Lexington NE USA na EN00bu 25 856 532 347
61951 2004-11-27 0312 323 HJH Hebron NE USA na EN10ed 25 755 469
61950 2004-11-27 0135 329 HMA Hondo TX USA na EL09ji 25 467 290 198
61949 2004-11-27 0059 332 GUO Georgetown TX USA na EM10dq 297 184 180
61948 2004-11-27 0054 332 FIS 'Fish Hook' Key West FL USA na EL94cn 400 1828 1136 118
61947 2004-11-27 0053 329 TAD Trinidad CO USA na DM77th 150 748 465 307
61946 2004-11-27 0052 326 MA 'Farly' Midland TX USA na DM81ux 400 455 283 251
61945 2004-11-27 0050 323 GR 'Starn' Fort Hood (Kileen) TX USA na EM11be 241 150 183
61943 2004-11-27 0015 320 TY Tyler / Indoo TX USA na EM22gj 100 236 146 116
61944 2004-11-27 0015 320 CLK Clinton OK USA na EM05mm 20 267 166 334
61384 2004-11-26 0513 281 EWK Newton KS USA na EM18ib 25 525 326 3
61383 2004-11-26 0458 344 YC Calgary AB CAN na DO31bb 2365 1470 331
61382 2004-11-26 0450 326 VV Wiarton ON CAN na EN94jq 400 1896 1178 43
61381 2004-11-26 0433 350 NY Enderby BC CAN na DO00mp 500 2585 1606 324
61380 2004-11-26 0430 353 BKS 'Brooks Co' Falfurrias TX USA na EL07we 25 687 427 183
61379 2004-11-26 0424 376 YAG Fort Frances ON CAN na EN38fq 40 1740 1081 10
61378 2004-11-26 0417 385 QV Yorkton SK CAN na DO81rf 100 2026 1259 350
61377 2004-11-26 0413 399 ZHD 'Thunder' Dryden ON CAN na EN39qt 25 1877 1166 11
61376 2004-11-26 0209 332 IC 'Piche' Wichita KS USA na EM17gn 25 468 291 2
61375 2004-11-26 0133 212 BCY 'Thorp' Boise City OK USA na DM86rs 581 361 312
61374 2004-11-25 0340 368 PHG Phillipsburg KS USA na EM09iq 25 718 446 349
61373 2004-11-25 0339 368 IX 'Dustt' Olathe KS USA na EM28nr 650 404 22
61372 2004-11-25 0334 350 ME 'Deana' Chicago IL USA na EN51xx 400 1280 795 38
61371 2004-11-25 0316 335 MEY Mapleton IA USA na EN22ce 996 619 9
61370 2004-11-25 0234 350 DNS Denison IA USA na EN21hx 25 981 609 11
61369 2004-11-25 0230 344 BKU 'Timber' Baker MT USA na DN76ui 80 1549 963 340
63280 2004-11-19 0214 397 CIN Carroll IA USA na EN22ob 25 1001 622 13
63279 2004-11-19 0200 335 CV 'Hisan' Clovis NM USA na DM84ji 520 323 283
60637 2004-11-18 0511 232 GF 'Birdy' Austin TX USA na EM10dg 343 213 180
60636 2004-11-18 0446 266 LLN Levelland TX USA na DM83tn 433 269 274
60635 2004-11-18 0442 248 GGI Grinnell IA USA na EN31pr 25 1030 640 23
60634 2004-11-18 0426 417 HHG Huntington IN USA na EN70gu 25 1367 849 48
60633 2004-11-18 0419 283 UZG 'Zarago' Zaragoza (Ciudad de la Habana) CUB ca EL82xw 250 1920 1193 123
60632 2004-11-18 0414 276 TWT 'Tradewater' Sturgis KY USA na EM67al 25 995 618 59
60631 2004-11-18 0359 245 CRR Circle MT USA na DN77fk 1698 1055 339
60630 2004-11-18 0334 413 OEG 'Golden Eagle' Yuma Proving Ground AZ USA na DM22su 49 1559 969 272
60629 2004-11-18 0303 395 XEN Xenia OH USA na EM89ar 25 1416 880 56
60628 2004-11-18 0242 414 ATS Artesia NM USA na DM72su 25 631 392 266
60627 2004-11-18 0218 258 PPF Parsons KS USA na EM27fi 486 302 23
60626 2004-11-16 0310 338 HIL 'Hilyn' Great Bend KS USA na EM08ni 566 352 349
60625 2004-11-15 2319 271 IBO Idabel OK USA na EM23nv 269 167 76
60244 2004-11-14 0334 412 JHH Griffin GA USA na EM73ve 1254 779 87
60243 2004-11-14 0331 424 RVJ 'Prison' Reidsville GA USA na EM82wb 25 1464 909 91
60242 2004-11-14 0220 513 PP 'Flick' Crescent IA USA na EN21bj 909 565 9
60241 2004-11-14 0158 394 EZZ Cameron MO USA na EM29ur 772 479 22
60240 2004-11-14 0145 368 PPA Pampa TX USA na DM95mo 25 389 242 310
60239 2004-11-14 0138 353 ICL Clarinda IA USA na EN20lr 25 853 530 15
8181 2004-11-14 0134 380 GC 'Deryk' Gillette WY USA na DN74fg 25 1389 863 333
60238 2004-11-14 0101 404 FNB 'Brenner' Falls City NE USA na EN20eb 25 769 478 13
60237 2004-11-14 0046 329 LXY Mexia TX USA na EM11rp 219 136 149
59904 2004-11-13 0441 344 BYY Bay City TX USA na EL28bx 25 517 321 159
59903 2004-11-13 0428 329 CH 'Ashly' Charleston SC USA na EM92wx 400 1635 1016 86
59902 2004-11-13 0417 362 TC 'Tuske' Tuscaloosa AL USA na EM63dd 930 578 88
59901 2004-11-13 0410 365 PTS Pittsburg KS USA na EM27pk 25 529 329 30
59900 2004-11-13 0400 215 BFK Buffalo OK USA na EM06eu 25 426 265 336
59899 2004-11-13 0354 224 BH 'Mc Den' Birmingham AL USA na EM63nm 400 1005 624 85
59898 2004-11-13 0242 253 OC 'Nados' Nacogdoches TX USA na EM21pl 25 350 218 125
59897 2004-11-13 0234 348 VLX 'Wilcox' Mountain View AR USA na EM35wu 25 582 361 59
59896 2004-11-13 0125 256 TQK Scott City KS USA na DM98nl 637 396 334
59895 2004-11-13 0118 296 LQR Larned KS USA na EM08ke 25 552 343 347
59894 2004-11-12 0214 368 SOY Sioux Center IA USA na EN13vd 1097 681 6
59893 2004-11-12 0208 338 TU 'Oillr' Tulsa OK USA na EM26bc 349 217 28
59892 2004-11-12 0119 246 FAU Fairview OK USA na EM06sg 331 206 348
59768 2004-11-11 0745 394 ENZ Nogales AZ USA na DM41nk 100 1253 779 263
59767 2004-11-11 0738 373 TF 'Aruba' Pueblo CO USA na DM78tg 812 505 314
59891 2004-11-11 0227 326 RRX 'Darr' Lexington NE USA na EN00bu 25 856 532 347
59890 2004-11-11 0204 414 SU 'Salix' Sioux City IA USA na EN12uh 40 1004 624 6
59889 2004-11-11 0156 392 FMZ 'Beklof' Fairmont NE USA na EN10fo 25 806 501 1
59763 2004-11-09 0427 278 CRZ Corning IA USA na EN20ox 25 886 551 16
59762 2004-11-09 0416 411 SDA Shenandoah IA USA na EN20hs 25 850 528 13
59761 2004-11-09 0404 518 GCT Guthrie Center IA USA na EN21sq 970 602 16
59760 2004-11-09 0402 515 PN 'Ponca' Ponca City OK USA na EM16kt 25 388 241 7
59759 2004-11-09 0357 510 OF 'Carsy' Norfolk NE USA na EN11gv 950 590 1
59758 2004-11-09 0314 426 FTP Fort Payne AL USA na EM74dm 25 1114 692 79
59757 2004-11-09 0308 524 AJG Mt Carmel IL USA na EM68do 25 1072 666 54
59756 2004-11-09 0255 278 CEP 'Capitan' Ruidoso NM USA na DM73hl 25 712 442 273
59755 2004-11-09 0250 338 RYN 'Ryan' Tucson AZ USA na DM42kd 400 1261 783 267
59754 2004-11-09 0248 335 OPL 'St Landry' Opelousas LA USA na EM30wp 606 377 118
59753 2004-11-09 0243 332 CAO Clayton NM USA na DM86kk 601 373 306
59752 2004-11-09 0115 407 HRU Herington KS USA na EM18oq 25 599 372 7
59751 2004-11-09 0111 526 OJ 'Furor' Olathe KS USA na EM28pw 677 420 22
59750 2004-11-09 0052 521 TO 'Biloy' Topeka KS USA na EM29dc 25 664 413 15
59749 2004-11-08 0357 356 HZ 'Hazer' New Roads LA USA na EM40gp 662 411 115
59748 2004-11-08 0356 356 PTT Pratt KS USA na EM07pr 25 495 307 349
59747 2004-11-08 0351 344 JA 'Dinns' Jacksonville FL USA na EM90cl 400 1534 953 97
59746 2004-11-08 0336 340 BIJ 'Early County' Blakely GA USA na EM71ok 25 1230 764 96
59745 2004-11-08 0332 305 LST Lone Star TX USA na EM22pw 283 176 98
59744 2004-11-08 0241 245 FS 'Rokky' Sioux Falls SD USA na EN13ol 100 1129 701 3
59743 2004-11-08 0235 521 TVX Greencastle IN USA na EM69or 1204 748 50
59742 2004-11-08 0231 230 HPT Hampton IA USA na EN32jr 25 1114 692 19
59741 2004-11-08 0224 228 BCZ 'Choctaw' Butler AL USA na EM52wc 25 907 563 96
59740 2004-11-08 0220 346 THJ 'Tallahala' Laurel MS USA na EM51jq 25 818 508 100
59739 2004-11-08 0211 379 TL 'Wakul' Tallahassee FL USA na EM70th 400 1303 810 101
59738 2004-11-08 0149 517 GKB 'Norge' Kansas City MO USA na EM29qb 692 430 22
59737 2004-11-08 0147 411 HAE Hannibal MO USA na EM49gr 902 560 36
59736 2004-11-08 0144 428 POH Pocahontas IA USA na EN22qr 25 1077 669 13
59735 2004-11-08 0141 414 IEB Lebanon MO USA na EM37qn 656 408 43
59734 2004-11-08 0137 323 HJH Hebron NE USA na EN10ed 25 755 469
59733 2004-11-08 0124 350 IUI 'Hicks' Blytheville AR USA na EM55bw 25 772 479 65
59732 2004-11-08 0113 526 ZLS Stella Maris, Long Island BAH ca FL23in 2439 1516 110
59731 2004-11-08 0107 332 FIS 'Fish Hook' Key West FL USA na EL94cn 400 1828 1136 118
59730 2004-11-08 0059 380 UCY 'Cayabo' Cayajabos (Pinar dal Rio) CUB ca EL82nu 100 1862 1157 125
62864 2004-11-07 2201 212 LIU Littlefield TX USA na DM83tw 25 437 271 279
62863 2004-11-07 1910 230 VRT 'Wilbarger' Vernon TX USA na EM04if 176 109 304
62862 2004-11-07 1856 239 UBC Ballinger TX USA na EM01aq 25 281 174 229
62861 2004-11-07 0743 398 ZQG La Salle (Windsor) ON CAN na EN82lf 25 1619 1006 48
58931 2004-11-06 0349 524 HRD 'Hardin County' Kountze / Silsbee TX USA na EM20ui 25 464 288 135
58930 2004-11-06 0346 521 ORC Orange City IA USA na EN12xx 25 1080 671 7
58929 2004-11-06 0334 356 UUV Sullivan MO USA na EM48kf 804 499 45
58928 2004-11-06 0325 380 UCY 'Cayabo' Cayajabos (Pinar dal Rio) CUB ca EL82nu 100 1862 1157 125
58927 2004-11-06 0323 415 CBC West End (Cayman Brac) CYM ca FK09bq 600 2329 1447 126
58926 2004-11-06 0252 403 AXA Algona IA USA na EN23ub 25 1120 696 14
58925 2004-11-06 0248 403 MFS 'Horseshoe Bay Resort' Marble Falls TX USA na EM00tm 321 200 191
58678 2004-11-04 0403 382 SP 'Huskk' Springfield IL USA na EM59cs 25 1004 624 42
58677 2004-11-04 0402 380 OEL Oakley KS USA na DM99oc 25 696 433 337
7391 2004-11-04 0359 368 SIR Sinclair WY USA na DN61kt 100 1253 778 321
58686 2004-11-04 0357 365 ADT Atwood KS USA na DM99lu 781 486 338
58685 2004-11-04 0348 338 RYN 'Ryan' Tucson AZ USA na DM42kd 400 1261 783 267
58684 2004-11-04 0323 305 RO 'Topan' Roswell NM USA na DM73si 400 627 389 271
58683 2004-11-04 0309 434 SLB Storm Lake IA USA na EN22jo 25 1051 653 11
58682 2004-11-04 0307 426 IZS Montezuma GA USA na EM72xi 25 1280 796 91
58681 2004-11-04 0303 420 FQ 'Montz' Fairmont MN USA na EN23tp 25 1180 733 13
58680 2004-11-04 0302 417 IY 'Chukk' Charles City IA USA na EN33pd 25 1172 728 20
58679 2004-11-04 0256 401 GGK Mayfield KY USA na EM56qq 25 906 563 63
58558 2004-11-03 2313 362 OWP 'William Pogue' Sand Springs OK USA na EM16we 347 215 24
58557 2004-11-03 2211 414 EGT Wellington KS USA na EM17hh 25 441 274 3
58556 2004-11-03 2156 275 SWW Sweetwater TX USA na DM92sl 25 274 171 249
58569 2004-11-03 0512 375 GUA Guatemala City GTM ca EK44ro 50 2207 1371 159
58568 2004-11-03 0505 366 EOK Keokuk IA USA na EN40gl 25 967 601 33
58567 2004-11-03 0452 250 YTJ Terrace Bay ON CAN na EN68kt 100 1930 1199 23
58566 2004-11-03 0420 365 AA 'Kenie' Fargo MN USA na EN17oa 100 1522 945 2
58565 2004-11-03 0419 365 HQG Hugoton KS USA na DM97hd 25 537 334 322
58564 2004-11-03 0417 423 CKP 'Pilot Rock' Cherokee IA USA na EN22fr 25 1059 658 9
58563 2004-11-03 0357 338 RYN 'Ryan' Tucson AZ USA na DM42kd 400 1261 783 267
58562 2004-11-03 0351 329 HMA Hondo TX USA na EL09ji 25 467 290 198
58561 2004-11-03 0350 329 TAD Trinidad CO USA na DM77th 150 748 465 307
58560 2004-11-03 0348 414 SKX 'Ski' Taos NM USA na DM76dk 25 806 501 297
58559 2004-11-03 0122 402 SYG 'Sandy Point' Houston TX USA na EL29gm 477 296 152
58363 2004-11-01 2312 396 CQB 'Tilghman' Chandler OK USA na EM15or 277 172 17
58362 2004-11-01 2310 359 JWG Watonga OK USA na EM05su 25 286 178 346
58176 2004-11-01 2236 305 RO 'Topan' Roswell NM USA na DM73si 400 627 389 271
58361 2004-11-01 2222 305 RO 'Topan' Roswell NM USA na DM73si 400 627 389 271
58360 2004-11-01 2219 308 PFL 'Post' Fort Sill OK USA na EM04to 152 94 336
58359 2004-10-31 1850 410 OIP 'Old Rip' Eastland TX USA na EM02oj 25 147 91 223
58358 2004-10-31 1848 406 OK 'Tuloo' Tulakes OK USA na EM15el 236 147 1
58357 2004-10-31 1827 311 BFE Brownfield TX USA na DM83ve 419 260 268
58133 2004-10-31 0349 384 PVJ Pauls Valley OK USA na EM14jr 160 99 16
58131 2004-10-31 0348 380 BBD Brady TX USA na EM01ie 25 283 176 212
58132 2004-10-31 0348 382 CR 'Conor' Chorpus Christi TX USA na EL17fu 612 380 178
58130 2004-10-31 0346 375 DW 'Owaso' Tulsa OK USA na EM26bh 20 369 229 26
58129 2004-10-31 0345 371 GHX Graham TX USA na EM03sd 25 73 46 251
58128 2004-10-31 0341 365 FT 'Mufin' Fort Worth TX USA na EM12hv 25 60 37 148
58127 2004-10-31 0334 362 CYW Clay Center KS USA na EM19kj 25 674 419 4
58125 2004-10-31 0326 358 AC 'Coffi' Waco TX USA na EM11jq 191 119 165
58126 2004-10-31 0326 359 DUA Durant OK USA na EM13tw 25 139 87 61
58124 2004-10-31 0324 353 LI 'Lasky' Little Rock AR USA na EM34uq 400 521 323 71
58123 2004-10-31 0323 353 XQH Cedar Hill (Tv Tower) TX USA na EM12mo 109 68 139
58122 2004-10-31 0312 350 RG 'Gally' Oklahoma City OK USA na EM15eh 400 218 135 1
58121 2004-10-31 0311 346 YXL Sioux Lookout ON CAN na EO40bc 1000 1923 1195 12
58119 2004-10-31 0310 344 SKB 'Scotland' Wichita Falls TX USA na EM03ss 25 84 52 303
58120 2004-10-31 0310 344 CGQ 'Powell' Corsicana TX USA na EM12sb 185 115 140
58118 2004-10-31 0309 344 ML 'Wampa' Mc Alester OK USA na EM24ct 240 149 46
57302 2004-10-30 1817 384 PVJ Pauls Valley OK USA na EM14jr 160 99 16
57301 2004-10-30 1816 380 BBD Brady TX USA na EM01ie 25 283 176 212
57300 2004-10-30 1802 378 CN 'Leroi' Waco TX USA na EM11lr 191 119 160
57299 2004-10-30 1800 375 PSN Palestine TX USA na EM21ds 25 257 160 132
57298 2004-10-30 1743 371 GHX Graham TX USA na EM03sd 25 73 46 251
57297 2004-10-30 1724 365 FT 'Mufin' Fort Worth TX USA na EM12hv 25 60 37 148
57296 2004-10-30 1656 359 DUA Durant OK USA na EM13tw 25 139 87 61
57295 2004-10-30 1654 358 AC 'Coffi' Waco TX USA na EM11jq 191 119 165
57294 2004-10-30 1652 356 GMZ 'Grindstone Mountain' Bowie TX USA na EM13co 29 18 344
57293 2004-10-30 1651 353 XQH Cedar Hill (Tv Tower) TX USA na EM12mo 109 68 139
57292 2004-10-30 1637 350 RG 'Gally' Oklahoma City OK USA na EM15eh 400 218 135 1
57291 2004-10-30 1629 344 CGQ 'Powell' Corsicana TX USA na EM12sb 185 115 140
57290 2004-10-30 1628 344 SKB 'Scotland' Wichita Falls TX USA na EM03ss 25 84 52 303
57289 2004-10-30 1623 341 DNI Denison TX USA na EM13pt 25 106 66 60
57288 2004-10-30 1541 335 RQO El Reno OK USA na EM05xl 25 238 148 352
58117 2004-10-30 0521 341 MYZ Marysville KS USA na EM19qu 729 453 7
58116 2004-10-30 0518 341 DNI Denison TX USA na EM13pt 25 106 66 60
58115 2004-10-30 0452 338 RYN 'Ryan' Tucson AZ USA na DM42kd 400 1261 783 267
58114 2004-10-30 0446 335 RQO El Reno OK USA na EM05xl 25 238 148 352
58113 2004-10-30 0443 335 YLD Chapleau ON CAN na EN87hs 100 2002 1244 32
56844 2004-10-29 0308 384 PVJ Pauls Valley OK USA na EM14jr 160 99 16
56843 2004-10-29 0306 382 CR 'Conor' Chorpus Christi TX USA na EL17fu 612 380 178
56842 2004-10-29 0305 380 UCY 'Cayabo' Cayajabos (Pinar dal Rio) CUB ca EL82nu 100 1862 1157 125
56840 2004-10-29 0303 375 RYB Raymond MS USA na EM42th 25 695 432 97
56841 2004-10-29 0303 375 PSN Palestine TX USA na EM21ds 25 257 160 132
56839 2004-10-29 0302 375 SPH Springhill LA USA na EM32hw 25 406 252 95
56838 2004-10-29 0255 366 YMW Maniwaki QC CAN na FN26ae 500 2330 1448 45
56836 2004-10-29 0251 365 HQG Hugoton KS USA na DM97hd 25 537 334 322
56837 2004-10-29 0251 365 AA 'Kenie' Fargo MN USA na EN17oa 100 1522 945 2
56835 2004-10-29 0247 362 CYW Clay Center KS USA na EM19kj 25 674 419 4
56834 2004-10-29 0235 335 CNC Chariton IA USA na EN31ha 25 935 581 22
56833 2004-10-29 0226 335 YLD Chapleau ON CAN na EN87hs 100 2002 1244 32
56832 2004-10-29 0214 414.5 RPB 'Republican' Belleville KS USA na EM19et 718 446
56831 2004-10-29 0207 278 FD 'Earli' Poplar Bluff MO USA na EM46uq 770 478 59
56830 2004-10-29 0154 277 TST Unknown XUU xx
56600 2004-10-26 0432 263 YGK Kingston ON CAN na FN14qh 1000 2185 1358 49
56599 2004-10-26 0429 272 YQA Muskoka ON CAN na FN05ia 400 2041 1268 45
56598 2004-10-26 0425 278 NM Matagami QC CAN na FN19dr 400 2451 1523 36
56597 2004-10-26 0413 245 YZE Gore Bay ON CAN na EN85qw 400 1898 1179 38
56596 2004-10-26 0340 355 YWP Webequie ON CAN na EO62hx 100 2332 1449 17
56595 2004-10-26 0339 353 QG Saint Clair Beach (Windsor) ON CAN na EN82nh 25 1636 1016 48
56594 2004-10-26 0338 346 YXL Sioux Lookout ON CAN na EO40bc 1000 1923 1195 12
56593 2004-10-26 0335 341 YYU Kapuskasing ON CAN na EN89rl 500 2185 1358 30
56592 2004-10-26 0332 326 YQK Kenora ON CAN na EN29st 200 1849 1149 7
56591 2004-10-26 0330 329 YHN Hornepayne ON CAN na EN79qf 500 2069 1286 27
56590 2004-10-26 0325 413 YHD Dryden ON CAN na EN39nu 250 1877 1166 10
56589 2004-10-26 0204 344 ML 'Wampa' Mc Alester OK USA na EM24ct 240 149 46
56588 2004-10-26 0203 329 BQP Bastrop LA USA na EM42bs 25 547 340 95
56587 2004-10-26 0157 338 MRK 'Molly Ridge' Rayville LA USA na EM42cj 563 350 99
56586 2004-10-26 0138 415 CBC West End (Cayman Brac) CYM ca FK09bq 600 2329 1447 126
56585 2004-10-26 0107 360 KIN Kingston JMC ca FK17nx 1000 2688 1670 124
56584 2004-10-26 0102 338 HR 'Sebas' Harlingen TX USA na EL16eh 25 783 487 179
56583 2004-10-26 0042 376 ZIN Matthew Town / Great Inagua Island BAH ca FL30dx 400 2734 1699 114
56547 2004-10-25 0243 362 AWM West Memphis AR USA na EM45vd 25 717 446 71
56546 2004-10-25 0210 329 HMA Hondo TX USA na EL09ji 25 467 290 198
56582 2004-10-25 0143 362 AWM West Memphis AR USA na EM45vd 25 717 446 71
56581 2004-10-25 0110 329 HMA Hondo TX USA na EL09ji 25 467 290 198
56545 2004-10-24 1601 323 GR 'Starn' Fort Hood (Kileen) TX USA na EM11be 241 150 183
52185 2004-10-24 0441 332 QT Thunder Bay ON CAN na EN58gi 1000 1804 1121 19
52184 2004-10-24 0423 385 HO 'Hossy' Hot Springs AR USA na EM34jk 50 432 269 72
52183 2004-10-24 0419 382 YPL Pickle Lake ON CAN na EO41vk 500 2100 1305 14
52182 2004-10-24 0347 330 CZM Cozumel (Quintana Roo) MEX ca EL60mm 1778 1105 140
52181 2004-10-24 0318 280 MPG Progreso (Yucatan) MEX ca EL51dg 1000 1557 968 147
52180 2004-10-24 0306 248 WG Winnipeg MB CAN na EN19hv 250 1839 1143
52179 2004-10-24 0048 338 CVB Castroville TX USA na EL09ni 25 458 285 194
53116 2004-10-23 0441 332 QT Thunder Bay ON CAN na EN58gi 1000 1804 1121 19
53115 2004-10-23 0423 385 HO 'Hossy' Hot Springs AR USA na EM34jk 50 432 269 72
53114 2004-10-23 0419 382 YPL Pickle Lake ON CAN na EO41vk 500 2100 1305 14
53113 2004-10-23 0347 330 CZM Cozumel (Quintana Roo) MEX ca EL60mm 1778 1105 140
53112 2004-10-23 0318 280 MPG Progreso (Yucatan) MEX ca EL51dg 1000 1557 968 147
53111 2004-10-23 0306 248 WG Winnipeg MB CAN na EN19hv 250 1839 1143
53110 2004-10-23 0048 338 CVB Castroville TX USA na EL09ni 25 458 285 194
53119 2004-10-22 0600 281 UVA Uvalde TX USA na EL09de 25 501 311 202
53118 2004-10-22 0550 526 ZLS Stella Maris, Long Island BAH ca FL23in 2439 1516 110
53117 2004-10-22 0113 263 JSO 'Cherokee Co' Jacksonville TX USA na EM21ju 287 179 124
50950 2004-10-21 1935 347 HLR 'Hood' Fort Hood (Killeen) TX USA na EM11dd 246 153 180
50949 2004-10-21 0449 214 CHX Choix (Sinaloa) MEX ca DL56ur 1256 780 236
50948 2004-10-21 0401 423 DXE Dexter MO USA na EM56as 801 498 59
50947 2004-10-21 0354 435 IIY 'Washington-Wilkes Co' Washington GA USA na EM83os 25 1382 858 83
50946 2004-10-21 0340 326 JY 'Nixin' Houston TX USA na EL29jx 25 444 276 147
50945 2004-10-21 0318 365 MNF Mountain View MO USA na EM46dx 678 421 51
50944 2004-10-21 0313 426 UV 'Tunng' Oxford MS USA na EM54ej 25 755 469 78
50812 2004-10-21 0115 208 BDQ 'Bridge' Morrilton AR USA na EM35pd 25 501 311 65
50811 2004-10-21 0108 275 ADF Arkadelphia AR USA na EM34kb 25 431 268 78
50704 2004-10-16 0456 362 HPC Hope AR USA na EM33er 381 237 82
50703 2004-10-16 0341 365 AA 'Kenie' Fargo MN USA na EN17oa 100 1522 945 2
50702 2004-10-15 2049 212 CFV Coffeyville KS USA na EM27fc 25 461 286 24
50701 2004-10-15 2028 223 FS 'Wizer' Fort Smith AR USA na EM25vi 391 243 54
50700 2004-10-14 2355 264 HN 'Suybe' Shawnee OK USA na EM15mk 25 242 150 16
50699 2004-10-14 2353 255 SW 'GABEH' Stillwater OK USA na EM16kf 50 324 201 9
50698 2004-10-14 0253 395 ULS Ulysses KS USA na DM97ho 577 359 325
48876 2004-10-13 2222 275 GUY Guymon OK USA na DM96fq 25 509 316 317
48886 2004-10-13 0311 227 MPR Mc Pherson KS USA na EM18di 25 556 345
48885 2004-10-13 0308 382 CR 'Conor' Chorpus Christi TX USA na EL17fu 612 380 178
48884 2004-10-13 0257 240 AWC Fort Polk LA USA na EM31ij 468 291 116
48883 2004-10-13 0244 430 AYB Auburn NE USA na EN20ck 806 501 11
48882 2004-10-13 0236 380 UCY 'Cayabo' Cayajabos (Pinar dal Rio) CUB ca EL82nu 100 1862 1157 125
48881 2004-10-13 0235 378 TGC 'Gibson' Trenton TN USA na EM55nw 25 857 533 67
2093 2004-10-13 0226 251 AM 'Pande' Amarillo TX USA na DM95cd 400 425 264 299
48880 2004-10-13 0221 275 PEZ Pleasanton TX USA na EL08rw 497 309 189
48879 2004-10-13 0213 400 ROB 'Robinson' Waco TX USA na EM11lm 213 132 162
48878 2004-10-13 0100 410 MSB 'Monarch' Iola KS USA na EM27hs 25 534 332 22
48877 2004-10-13 0043 404 ABG 'Ambassador' Big Sandy TX USA na EM22ko 25 255 158 108
48742 2004-10-11 2249 278 SRE Seminole OK USA na EM15pg 232 144 23
48741 2004-10-11 2245 260 OUN Norman OK USA na EM15gf 25 210 130 6
48740 2004-10-11 2241 215 TQH Tahlequah OK USA na EM25lw 25 377 234 39
48739 2004-10-11 2156 391 AEE Antlers OK USA na EM24ee 25 214 133 63
48749 2004-10-11 0337 432 MHP Metter GA USA na EM82wi 25 1458 906 90
48748 2004-10-11 0335 426 IZS Montezuma GA USA na EM72xi 25 1280 796 91
48747 2004-10-11 0333 385 DR 'Idder' De Ridder LA USA na EM30hs 499 310 123
48605 2004-10-11 0330 278 UX 'Sulfy' Sulphur LA USA na EM30ge 534 332 130
48746 2004-10-11 0330 410 DQU De Quincy LA USA na EM30gk 516 320 127
48745 2004-10-11 0328 418 CW 'Mossy' Lake Charles LA USA na EM30jh 25 543 337 127
48604 2004-10-11 0325 260 JH 'Brenz' Jackson MS USA na EM42uj 701 435 96
48603 2004-10-11 0318 388 AM 'Picny' Tampa FL USA na EL87ru 400 1573 977 108
48744 2004-10-11 0144 332 RPF Carthage TX USA na EM22ue 25 345 214 111
48743 2004-10-11 0034 284 VIV Vivian LA USA na EM22xu 346 215 98
48562 2004-10-10 2115 378 CN 'Leroi' Waco TX USA na EM11lr 191 119 160
48561 2004-10-10 2104 332 GUO Georgetown TX USA na EM10dq 297 184 180
48560 2004-10-10 2048 281 DEQ De Queen AR USA na EM24tb 25 318 198 74
48559 2004-10-10 1847 353 XQH Cedar Hill (Tv Tower) TX USA na EM12mo 109 68 139
48558 2004-10-10 1835 272 OJA Weatherford OK USA na EM05pm 258 160 339
48557 2004-10-10 1449 230 SH 'Crakk' Shreveport LA USA na EM32bm 400 369 230 103
48556 2004-10-10 1446 215 CSZ 'Crossroads' Athens TX USA na EM22ab 25 218 135 130
48555 2004-10-10 0958 212 HMQ Homer LA USA na EM32ls 440 273 97
48378 2004-10-10 0313 353 LI 'Lasky' Little Rock AR USA na EM34uq 400 521 323 71
48377 2004-10-10 0308 365 HQG Hugoton KS USA na DM97hd 25 537 334 322
48376 2004-10-10 0305 375 SPH Springhill LA USA na EM32hw 25 406 252 95
48375 2004-10-10 0300 391 DDP San Juan / Dorado / Luiz Munoz Marin Intl PR PTR ca FK68tl 2000 3523 2189 110
48374 2004-10-10 0255 397 BWK Bunkie LA USA na EM30vu 588 365 116
48601 2004-10-10 0246 413 CBC Anahuac TX USA na EL29qs 25 494 307 142
48600 2004-10-10 0230 362 BNH Brenham TX USA na EM10tf 25 370 230 159
48599 2004-10-10 0132 375 RYB Raymond MS USA na EM42th 25 695 432 97
48598 2004-10-10 0122 272 MMY Many LA USA na EM31fn 439 273 115
48333 2004-10-09 0455 247 ILT Isleta NM USA na DM64qx 400 840 522 284
1789 2004-10-09 0449 245 ANR Andrews TX USA na DM82ri 465 289 257
48332 2004-10-09 0442 198 DIW Dixon NC USA na FM14gn 2000 1869 1161 80
48331 2004-10-09 0441 216 CLB Wilmington / Carolina Beach NC USA na FM14ac 1825 1134 81
48330 2004-10-09 0436 379 LRR 'Allen Parish' Oakdale LA USA na EM30pp 559 348 121
1666 2004-10-09 0425 242 EL 'Valtr' El Paso TX USA na DM61uu 400 821 510 260
48329 2004-10-09 0347 326 MA 'Farly' Midland TX USA na DM81ux 400 455 283 251
48328 2004-10-09 0345 329 TAD Trinidad CO USA na DM77th 150 748 465 307
48327 2004-10-09 0337 353 LI 'Lasky' Little Rock AR USA na EM34uq 400 521 323 71
48301 2004-10-09 0234 385 COM Coleman TX USA na EM01hu 25 228 142 223
48300 2004-10-09 0226 375 PSN Palestine TX USA na EM21ds 25 257 160 132
48299 2004-10-09 0207 230 SH 'Crakk' Shreveport LA USA na EM32bm 400 369 230 103
48298 2004-10-09 0159 245 ARM Wharton TX USA na EL19wg 25 478 297 161
48297 2004-10-09 0151 242 MEZ Mena AR USA na EM24vn 25 350 217 66
61982 2004-10-09 0149 242 CUH Cushing OK USA na EM15ov 25 295 183 16
48296 2004-10-09 0135 305 RO 'Topan' Roswell NM USA na DM73si 400 627 389 271
48295 2004-10-09 0003 216 CLB Wilmington / Carolina Beach NC USA na FM14ac 1825 1134 81
48294 2004-10-08 2031 428 SYW 'Cash' Greenville TX USA na EM12xx 25 161 100 104
48293 2004-10-08 2030 421 EF 'Fluet' Mc Kinney TX USA na EM13qg 101 63 94
48292 2004-10-08 2029 415 HJM 'Rayburn' Bonham TX USA na EM13vo 25 142 88 78
48291 2004-10-08 2027 396 CRS Corsicana TX USA na EM12ta 25 194 120 139
48290 2004-10-08 2025 388 JUG 'Jecca' Seagoville TX USA na EM12rq 25 132 82 123
48289 2004-10-08 2022 371 GHX Graham TX USA na EM03sd 25 73 46 251
48288 2004-10-08 2020 365 FT 'Mufin' Fort Worth TX USA na EM12hv 25 60 37 148
48287 2004-10-08 2019 359 DUA Durant OK USA na EM13tw 25 139 87 61
48286 2004-10-08 2018 356 GMZ 'Grindstone Mountain' Bowie TX USA na EM13co 29 18 344
48285 2004-10-08 2017 350 RG 'Gally' Oklahoma City OK USA na EM15eh 400 218 135 1
48284 2004-10-08 2015 344 SKB 'Scotland' Wichita Falls TX USA na EM03ss 25 84 52 303
48283 2004-10-08 2013 341 DNI Denison TX USA na EM13pt 25 106 66 60
48282 2004-10-08 2012 330 GLE Gainesville TX USA na EM13jr 62 39 47
48281 2004-10-08 2008 323 HHW Hugo OK USA na EM24fa 25 214 133 69
48280 2004-10-08 2007 320 CLK Clinton OK USA na EM05mm 20 267 166 334
48279 2004-10-08 2006 320 TY Tyler / Indoo TX USA na EM22gj 100 236 146 116
48278 2004-10-08 2005 316 MII Caddo Mills TX USA na EM13va 25 144 90 104
48277 2004-10-08 2000 296 SP 'Shawn' Wichita Falls TX USA na EM03sv 92 57 311
48276 2004-10-08 1958 287 RBD 'Redbird' Dallas TX USA na EM12nq 50 107 67 133
48275 2004-10-08 1957 281 DEQ De Queen AR USA na EM24tb 25 318 198 74
48274 2004-10-08 1954 280 GZV 'Brazos River' Graford TX USA na EM02tw 25 77 48 233
48273 2004-10-08 1950 272 OJA Weatherford OK USA na EM05pm 258 160 339
48272 2004-10-08 1945 275 LV 'Conis' Dallas TX USA na EM12os 25 107 67 126
48271 2004-10-08 1939 260 AVZ 'Travis' Terrell TX USA na EM12vs 25 154 96 114
48270 2004-10-08 1937 257 DT 'Pinck' Denton TX USA na EM13jg 25 47 29 101
48269 2004-10-08 1935 248 PQF Mesquite TX USA na EM12rt 25 124 77 118
48268 2004-10-08 1931 239 LNC Lancaster TX USA na EM12pn 25 128 80 133
48267 2004-10-08 1919 233 PK 'Issue' Dallas (DFW) TX USA na EM12lt 87 54 133
48266 2004-10-08 1914 219 FL 'Jiffy' Flower Mound (Dallas Ft. Worth Intl Apt) TX USA na EM12lx 75 46 123
48265 2004-10-08 1907 215 CSZ 'Crossroads' Athens TX USA na EM22ab 25 218 135 130
48264 2004-10-08 1900 206 GLS Galveston TX USA na EL29oi 2000 524 325 147
48263 2004-10-08 1858 201 GV 'Major' Greenville TX USA na EM13xd 25 157 97 98
48163 2004-10-07 0235 296 SP 'Shawn' Wichita Falls TX USA na EM03sv 92 57 311
48162 2004-10-07 0223 280 GZV 'Brazos River' Graford TX USA na EM02tw 25 77 48 233
3181 2004-10-07 0209 272 OJA Weatherford OK USA na EM05pm 258 160 339
48161 2004-10-07 0202 266 MWL Mineral Wells TX USA na EM02xs 72 45 205
48160 2004-10-07 0156 260 AVZ 'Travis' Terrell TX USA na EM12vs 25 154 96 114
48159 2004-10-07 0154 257 DT 'Pinck' Denton TX USA na EM13jg 25 47 29 101
48158 2004-10-07 0139 248 PQF Mesquite TX USA na EM12rt 25 124 77 118
48014 2004-10-05 2041 28197 VE7MTY Pitt Meadows BC CAN na CN89pf 25 2712 1685 318
48021 2004-10-05 0255 356 GMZ 'Grindstone Mountain' Bowie TX USA na EM13co 29 18 344
48020 2004-10-05 0251 365 FT 'Mufin' Fort Worth TX USA na EM12hv 25 60 37 148
48022 2004-10-05 0251 350 RG 'Gally' Oklahoma City OK USA na EM15eh 400 218 135 1
48019 2004-10-05 0247 371 GHX Graham TX USA na EM03sd 25 73 46 251
48018 2004-10-05 0245 388 JUG 'Jecca' Seagoville TX USA na EM12rq 25 132 82 123
48017 2004-10-05 0241 421 EF 'Fluet' Mc Kinney TX USA na EM13qg 101 63 94
48016 2004-10-05 0239 428 SYW 'Cash' Greenville TX USA na EM12xx 25 161 100 104
48015 2004-10-05 0210 60 WWVB Fort Collins CO USA na DN70lq 50000 1043 648 323
47440 2004-10-03 1851 320 TY Tyler / Indoo TX USA na EM22gj 100 236 146 116
47439 2004-10-03 1838 316 MII Caddo Mills TX USA na EM13va 25 144 90 104
47438 2004-10-03 1833 260 AVZ 'Travis' Terrell TX USA na EM12vs 25 154 96 114
47437 2004-10-03 1832 257 DT 'Pinck' Denton TX USA na EM13jg 25 47 29 101
47436 2004-10-03 1829 248 PQF Mesquite TX USA na EM12rt 25 124 77 118
47435 2004-10-03 1828 239 LNC Lancaster TX USA na EM12pn 25 128 80 133
47434 2004-10-03 1825 206 GLS Galveston TX USA na EL29oi 2000 524 325 147
43846 2004-09-25 2011 388 JUG 'Jecca' Seagoville TX USA na EM12rq 25 132 82 123
43850 2004-09-25 0103 388 OFZ 'Trail' Fort Sill OK USA na EM04ts 169 105 338
43849 2004-09-25 0100 396 CRS Corsicana TX USA na EM12ta 25 194 120 139
43848 2004-09-25 0038 388 JUG 'Jecca' Seagoville TX USA na EM12rq 25 132 82 123
43847 2004-09-25 0037 384 PVJ Pauls Valley OK USA na EM14jr 160 99 16
42296 2004-09-21 0455 368 AN 'Alamo' San Antonio TX USA na EL09ro 400 424 264 190
42295 2004-09-21 0404 386 SYF St. Francis KS USA na DM99cr 25 797 495 333
42294 2004-09-21 0346 353 LI 'Lasky' Little Rock AR USA na EM34uq 400 521 323 71
41971 2004-09-18 1732 269 AHX Athens TX USA na EM22cd 25 224 139 126
41970 2004-09-18 1731 266 MWL Mineral Wells TX USA na EM02xs 72 45 205
41969 2004-09-18 1730 260 AVZ 'Travis' Terrell TX USA na EM12vs 25 154 96 114
41968 2004-09-18 1725 257 DT 'Pinck' Denton TX USA na EM13jg 25 47 29 101
41966 2004-09-18 1723 245 BKD Breckenridge TX USA na EM02nr 25 129 80 237
41967 2004-09-18 1723 248 PQF Mesquite TX USA na EM12rt 25 124 77 118
41965 2004-09-18 1720 239 LNC Lancaster TX USA na EM12pn 25 128 80 133
41964 2004-09-18 1717 233 PK 'Issue' Dallas (DFW) TX USA na EM12lt 87 54 133
41963 2004-09-18 1716 206 GLS Galveston TX USA na EL29oi 2000 524 325 147
41962 2004-09-18 1715 201 GV 'Major' Greenville TX USA na EM13xd 25 157 97 98
41892 2004-09-18 0630 400 HHF 'Hemphill County' Canadian TX USA na DM95tv 25 373 232 319
41891 2004-09-18 0617 375 SPH Springhill LA USA na EM32hw 25 406 252 95
41890 2004-09-18 0614 382 VKS Vicksburg MS USA na EM42mf 643 400 99
41889 2004-09-18 0515 326 MA 'Farly' Midland TX USA na DM81ux 400 455 283 251
4448 2004-09-18 0511 308 UTS Huntsville TX USA na EM20er 28 352 219 145
41888 2004-09-18 0506 305 RO 'Topan' Roswell NM USA na DM73si 400 627 389 271
41887 2004-09-18 0442 215 CSZ 'Crossroads' Athens TX USA na EM22ab 25 218 135 130
41992 2004-09-18 0419 230 SH 'Crakk' Shreveport LA USA na EM32bm 400 369 230 103
41991 2004-09-18 0409 391 DDP San Juan / Dorado / Luiz Munoz Marin Intl PR PTR ca FK68tl 2000 3523 2189 110
41990 2004-09-18 0408 391 GXD Nacogdoches TX USA na EM21pp 25 339 211 123
41989 2004-09-18 0404 388 JUG 'Jecca' Seagoville TX USA na EM12rq 25 132 82 123
41988 2004-09-18 0403 385 COM Coleman TX USA na EM01hu 25 228 142 223
41987 2004-09-18 0234 400 AI 'Addmo' Ardmore OK USA na EM14mf 25 119 74 35
41986 2004-09-18 0233 388 JUG 'Jecca' Seagoville TX USA na EM12rq 25 132 82 123
41985 2004-09-18 0231 388 OFZ 'Trail' Fort Sill OK USA na EM04ts 169 105 338
41984 2004-09-18 0229 384 PVJ Pauls Valley OK USA na EM14jr 160 99 16
41983 2004-09-18 0227 371 GHX Graham TX USA na EM03sd 25 73 46 251
41981 2004-09-18 0225 359 DUA Durant OK USA na EM13tw 25 139 87 61
41982 2004-09-18 0225 365 FT 'Mufin' Fort Worth TX USA na EM12hv 25 60 37 148
41980 2004-09-18 0222 356 GMZ 'Grindstone Mountain' Bowie TX USA na EM13co 29 18 344
41979 2004-09-18 0220 350 RG 'Gally' Oklahoma City OK USA na EM15eh 400 218 135 1
41976 2004-09-18 0217 341 DNI Denison TX USA na EM13pt 25 106 66 60
41977 2004-09-18 0217 344 SKB 'Scotland' Wichita Falls TX USA na EM03ss 25 84 52 303
41978 2004-09-18 0217 344 CGQ 'Powell' Corsicana TX USA na EM12sb 185 115 140
41975 2004-09-18 0215 335 RQO El Reno OK USA na EM05xl 25 238 148 352
41974 2004-09-18 0214 330 GLE Gainesville TX USA na EM13jr 62 39 47
41973 2004-09-18 0207 320 CLK Clinton OK USA na EM05mm 20 267 166 334
41972 2004-09-18 0206 314 GGU Prague OK USA na EM15pm 25 258 160 20
6086 2004-09-15 0416 347 TKB 'Kleberg Co' Kingsville TX USA na EL07wo 25 641 398 183
40996 2004-09-15 0415 344 CGQ 'Powell' Corsicana TX USA na EM12sb 185 115 140
40688 2004-09-13 0516 359 SDR Snyder TX USA na DM92mq 25 312 194 257
40686 2004-09-13 0505 326 MA 'Farly' Midland TX USA na DM81ux 400 455 283 251
40687 2004-09-13 0505 323 HHW Hugo OK USA na EM24fa 25 214 133 69
40685 2004-09-13 0451 414 MSD Mansfield LA USA na EM32cb 25 394 245 110
40683 2004-09-13 0440 391 DDP San Juan / Dorado / Luiz Munoz Marin Intl PR PTR ca FK68tl 2000 3523 2189 110
40684 2004-09-13 0440 391 GXD Nacogdoches TX USA na EM21pp 25 339 211 123
40682 2004-09-13 0435 385 COM Coleman TX USA na EM01hu 25 228 142 223
40681 2004-09-13 0430 382 VKS Vicksburg MS USA na EM42mf 643 400 99
40680 2004-09-13 0410 332 FIS 'Fish Hook' Key West FL USA na EL94cn 400 1828 1136 118
4389 2004-09-12 0613 305 RO 'Topan' Roswell NM USA na DM73si 400 627 389 271
39085 2004-09-12 0420 329 TAD Trinidad CO USA na DM77th 150 748 465 307
39016 2004-09-11 2040 388 OFZ 'Trail' Fort Sill OK USA na EM04ts 169 105 338
39015 2004-09-11 2023 290 TMV Stamford TX USA na EM02du 25 194 121 253
39019 2004-09-11 0230 281 DEQ De Queen AR USA na EM24tb 25 318 198 74
39018 2004-09-11 0215 245 BKD Breckenridge TX USA na EM02nr 25 129 80 237
39017 2004-09-11 0138 353 AB 'Tomhi' Abilene TX USA na EM02dh 220 137 238
39014 2004-09-10 0502 375 DW 'Owaso' Tulsa OK USA na EM26bh 20 369 229 26
35366 2004-09-09 0345 326 MA 'Farly' Midland TX USA na DM81ux 400 455 283 251
35365 2004-09-09 0337 332 CZX Crosbyton TX USA na DM93jo 326 202 275
7193 2004-09-09 0322 365 HQG Hugoton KS USA na DM97hd 25 537 334 322
6982 2004-09-09 0317 362 CYW Clay Center KS USA na EM19kj 25 674 419 4
35345 2004-09-08 2254 284 AUV 'Arbuckle' Ardmore OK USA na EM14kd 25 103 64 31
35344 2004-09-08 2253 280 GZV 'Brazos River' Graford TX USA na EM02tw 25 77 48 233
35343 2004-09-08 2250 266 MWL Mineral Wells TX USA na EM02xs 72 45 205
35342 2004-09-08 2247 251 MNZ Hamilton TX USA na EM01wo 25 198 123 191
35341 2004-09-08 2239 206 GLS Galveston TX USA na EL29oi 2000 524 325 147
35340 2004-09-08 2127 350 RG 'Gally' Oklahoma City OK USA na EM15eh 400 218 135 1
35339 2004-09-08 2126 341 DNI Denison TX USA na EM13pt 25 106 66 60
35338 2004-09-08 2125 335 RQO El Reno OK USA na EM05xl 25 238 148 352
35337 2004-09-08 2123 330 GLE Gainesville TX USA na EM13jr 62 39 47
35336 2004-09-08 2121 314 GGU Prague OK USA na EM15pm 25 258 160 20
35207 2004-09-08 0000 391 DDP San Juan / Dorado / Luiz Munoz Marin Intl PR PTR ca FK68tl 2000 3523 2189 110
35208 2004-09-08 0000 400 HHF 'Hemphill County' Canadian TX USA na DM95tv 25 373 232 319
35209 2004-09-08 0000 396 CRS Corsicana TX USA na EM12ta 25 194 120 139
35335 2004-09-07 0353 287 RBD 'Redbird' Dallas TX USA na EM12nq 50 107 67 133
35334 2004-09-07 0347 515 PKV Port Lavaca TX USA na EL18pp 25 532 331 169
35206 2004-09-07 0237 428 SYW 'Cash' Greenville TX USA na EM12xx 25 161 100 104
35205 2004-09-07 0236 421 EF 'Fluet' Mc Kinney TX USA na EM13qg 101 63 94
35204 2004-09-07 0235 411 HDL Holdenville OK USA na EM15tc 230 143 31
35203 2004-09-07 0232 407 IE 'Campi' Natchitoches LA USA na EM31lp 477 296 112
35201 2004-09-07 0231 407 AD 'Brons' Dallas TX USA na EM13nb 84 52 112
35202 2004-09-07 0231 407 AKL Haskell TX USA na EM03de 25 187 116 264
35200 2004-09-07 0228 391 GXD Nacogdoches TX USA na EM21pp 25 339 211 123
35199 2004-09-07 0227 388 JUG 'Jecca' Seagoville TX USA na EM12rq 25 132 82 123
35198 2004-09-07 0226 380 BBD Brady TX USA na EM01ie 25 283 176 212
35197 2004-09-07 0225 371 GHX Graham TX USA na EM03sd 25 73 46 251
7182 2004-09-07 0224 365 FT 'Mufin' Fort Worth TX USA na EM12hv 25 60 37 148
35196 2004-09-07 0223 359 DUA Durant OK USA na EM13tw 25 139 87 61
35195 2004-09-07 0222 356 GMZ 'Grindstone Mountain' Bowie TX USA na EM13co 29 18 344
35194 2004-09-07 0220 344 SKB 'Scotland' Wichita Falls TX USA na EM03ss 25 84 52 303
35193 2004-09-07 0219 341 DNI Denison TX USA na EM13pt 25 106 66 60
35192 2004-09-07 0216 330 GLE Gainesville TX USA na EM13jr 62 39 47
35191 2004-09-07 0210 323 HHW Hugo OK USA na EM24fa 25 214 133 69
35190 2004-09-07 0209 320 TY Tyler / Indoo TX USA na EM22gj 100 236 146 116
35189 2004-09-07 0207 296 SP 'Shawn' Wichita Falls TX USA na EM03sv 92 57 311
35188 2004-09-07 0205 284 AUV 'Arbuckle' Ardmore OK USA na EM14kd 25 103 64 31
35187 2004-09-07 0203 280 GZV 'Brazos River' Graford TX USA na EM02tw 25 77 48 233
35185 2004-09-07 0200 257 DT 'Pinck' Denton TX USA na EM13jg 25 47 29 101
35186 2004-09-07 0200 260 AVZ 'Travis' Terrell TX USA na EM12vs 25 154 96 114
35184 2004-09-07 0159 248 PQF Mesquite TX USA na EM12rt 25 124 77 118
35183 2004-09-07 0158 239 LNC Lancaster TX USA na EM12pn 25 128 80 133
35182 2004-09-07 0153 206 GLS Galveston TX USA na EL29oi 2000 524 325 147
35181 2004-09-07 0152 201 GV 'Major' Greenville TX USA na EM13xd 25 157 97 98